Probability
0 0 0 0 0 0 0 0 0 0 0 0 0 0 0 0 0 0 0 0 0 0 0 0 0 0 0 0 0 0 0 0 0 0 0 0 0 0
0 0 0 0 0 0 0 0 0 0 0 0 0 0 0 0 0 0 0 0 0 0 0 0 0 0 0 0 0 0 0 0 0 0 0 0 0 0
0 0 0 0 0 0 0 0 0 0 0 0 0 0 0 0 0 0 0 0 0 0 0 0 0 0 0 0 0 0 0 0 0 0 0 0 0 0
0 0 0 0 0 0 0 0 0 0 0 0 0 0 0 0 0 0 0 0 0 0 0 0 0 0 0 0 0 0 0 0 0 0 0 0 0 0
0 0 0 0 0 0 0 0 0 0 0 0 0 0 0 0 0 0 0 0 0 0 0 0 0 0 0 0 0 0 0 0 0 0 0 0 0 0
0 0 0 0 0 0 0 0 0 0 0 0 0 0 0 0 0 0 0 0 0 0 0 0 0 0 0 0 0 0 0 0 0 0 0 0 0 0
0 0 0 0 0 0 0 0 0 0 0 0 0 0 0 0 0 0 0 0 0 0 0 0 0 0 0 0 0 0 0 0 0 0 0 0 0 0
0 0 0 0 0 0 0 0 0 0 0 0 0 0 0 0 0 0 0 0 0 0 0 0 0 0 0 0 0 0 0 0 0 0 0 0 0 0
0 0 0 0 0 0 0 0 0 0 0 0 0 0 0 0 0 0 0 0 0 0 0 0 0 0 0 0 0 0 0 0 0 0 0 0 0 0
0 0 0 0 0 0 0 0 0 0 0 0 0 0 0 0 0 0 0 0 0 0 0 0 0 0 0 0 0 0 0 0 0 0 0 0 0 0
0 0 0 0 0 0 0 0 0 0 0 0 0 0 0 0 0 0 0 0 0 0 0 0 0 0 0 0 0 0 0 0 0 0 0 0 0 0
0 0 0 0 0 0 0 0 0 0 0 0 0 0 0 0 0 0 0 0 0 0 0 0 0 0 0 0 0 0 0 0 0 0 0 0 0 0
0 0 0 0 0 0 0 0 0 0 0 0 0 0 0 0 0 0 0 0 0 0 0 0 0 0 0 0 0 0 0 0 0 0 0 0 0 0
0 0 0 0 0 0 0 0 0 0 0 0 0 0 0 0 0 0 0 0 0 0 0 0 0 0 0 0 0 0 0 0 0 0 0 0 0 0
0 0 0 0 0 0 0 0 0 0 0 0 0 0 0 0 0 0 0 0 0 0 0 0 0 0 0 0 0 0 0 0 0 0 0 0 0 0
0 0 0 0 0 0 0 0 0 0 0 0 0 0 0 0 0 0 0 0 0 0 0 0 0 0 0 0 0 0 0 0 0 0 0 0 0 0
0 0 0 0 0 0 0 0 0 0 0 0 0 0 0 0 0 0 0 0 0 0 0 0 0 0 0 0 0 0 0 0 0 0 0 0 0 0
0 0 0 0 0 0 0 0 0 0 0 0 0 0 0 0 0 0 0 0 0 0 0 0 0 0 0 0 0 0 0 0 0 0 0 0 0 0
0 0 0 0 0 0 0 0 0 0 0 0 0 0 0 0 0 0 0 0 0 0 0 0 0 0 0 0 0 0 0 0 0 0 0 0 0 0
0 0 0 0 0 0 0 0 0 0 0 0 0 0 0 0 0 0 0 0 0 0 0 0 0 0 0 0 0 0 0 0 0 0 0 0 0 0
0 0 0 0 0 0 0 0 0 0 0 0 0 0 0 0 0 0 0 0 0 0 0 0 0 0 0 0 0 0 0 0 0 0 0 0 0 0
0 0 0 0 0 0 0 0 0 0 0 0 0 0 0 0 0 0 0 0 0 0 0 0 0 0 0 0 0 0 0 0 0 0 0 0 0 0
0 0 0 0 0 0 0 0 0 0 0 0 0 0 0 0 0 0 0 0 0 0 0 0 0 0 0 0 0 0 0 0 0 0 0 0 0 0
Wind_Speed
8 8 8 7 6 7 7 7 10 16 14 7 5 5 6 6 10 9 7 17 24 24 24 24 25 26 27 28 29 30 31 31 31 31 32 33 34 34
6 8 8 7 6 6 7 7 7 12 18 8 6 6 7 8 15 12 8 22 24 25 25 25 25 26 27 28 28 29 30 31 31 32 33 33 33 33
8 8 9 8 7 6 6 7 7 8 16 14 6 6 7 8 10 8 9 9 10 23 27 27 27 27 27 27 28 28 29 30 31 31 32 33 34 33
8 8 9 9 9 8 7 8 8 8 12 19 11 6 8 8 9 10 10 10 8 19 27 28 28 27 27 27 27 27 28 28 29 30 31 32 33 33
8 9 10 10 12 10 10 11 10 11 10 14 15 8 7 7 9 10 11 10 11 16 23 25 27 27 27 27 27 27 27 27 28 29 29 30 31 32
9 10 11 12 13 13 12 12 11 11 11 12 14 11 8 8 8 8 9 8 9 10 15 18 22 25 26 26 26 26 25 26 27 28 28 28 28 29
10 11 12 17 22 19 15 11 11 11 11 12 13 12 10 7 8 7 10 8 8 8 8 9 9 8 10 18 22 24 24 25 26 27 28 28 27 27
10 10 12 16 20 26 28 26 22 15 12 12 12 13 12 10 8 8 10 10 10 5 8 9 7 8 7 7 17 23 24 24 24 25 26 26 26 26
10 11 12 13 20 13 19 25 23 26 26 17 15 14 13 11 10 12 11 12 12 5 6 9 6 8 7 11 21 23 23 23 23 23 24 24 25 25
11 12 13 13 13 17 13 13 13 14 18 14 12 13 14 12 12 13 13 13 12 8 8 10 8 8 8 7 18 22 22 23 22 22 22 23 23 23
10 11 13 13 21 27 18 14 14 13 18 24 25 23 26 26 21 11 9 10 11 7 6 7 7 7 6 7 11 21 22 21 21 21 21 21 21 21
9 10 18 21 25 27 16 13 15 13 12 13 16 18 16 17 23 14 9 10 10 7 6 6 6 5 5 5 6 7 10 16 19 20 19 19 19 10
9 8 9 22 27 28 24 14 18 19 12 11 10 9 8 8 9 9 8 9 10 8 4 4 4 5 5 3 3 5 6 5 6 9 14 17 18 14
10 8 11 24 27 28 21 21 26 21 8 7 8 7 7 7 6 7 8 9 9 10 6 6 5 5 5 5 3 3 4 4 5 5 4 10 13 17
11 20 24 27 25 17 19 23 18 8 6 7 8 7 6 6 6 6 6 7 8 8 7 8 7 6 6 6 4 3 3 3 4 4 4 4 4 4
12 16 22 22 18 17 15 11 6 6 7 7 7 6 6 5 6 5 5 5 5 5 6 8 8 8 7 7 5 4 4 3 4 4 4 3 3 4
14 9 7 7 6 6 6 6 5 6 6 5 6 6 6 6 6 5 4 4 5 4 4 4 6 6 7 6 5 5 4 4 3 4 4 4 4 4
16 8 7 7 7 7 7 6 5 6 5 5 6 6 6 6 6 4 4 4 5 4 4 4 4 3 3 5 7 5 5 4 4 4 4 4 4 3
10 7 7 7 7 7 6 7 6 6 5 6 6 6 6 6 5 5 4 4 4 4 4 3 4 5 5 5 5 9 6 5 5 5 5 5 5 5
6 7 7 7 7 7 7 6 6 6 5 5 6 6 5 5 5 5 4 5 4 4 4 4 4 6 6 5 3 4 11 7 5 6 5 4 3 5
7 7 7 7 7 7 7 7 6 6 6 6 6 6 5 5 5 5 5 8 6 4 5 5 5 7 3 2 2 3 4 10 9 5 5 5 4 4
8 8 7 7 7 6 6 6 6 6 6 6 6 5 5 5 5 6 5 5 4 4 5 3 3 3 4 5 5 4 4 4 8 12 11 9 6 7
8 8 7 7 7 6 6 7 8 7 6 6 5 5 5 5 5 5 5 5 5 5 4 3 3 3 4 5 4 4 5 5 4 5 6 12 15 14
Wind_Direction
256 257 257 256 252 252 252 250 269 284 281 261 253 256 268 276 279 281 268 269 271 270 268 268 268 269 269 268 267 265 263 261 261 260 257 252 247 241
262 263 263 261 258 255 253 254 251 268 280 274 252 248 261 273 280 282 278 282 279 277 274 273 271 270 269 267 266 264 262 260 258 257 256 255 251 246
282 280 277 276 274 268 265 262 260 261 276 282 263 256 257 264 273 272 274 273 273 276 276 274 272 271 270 269 267 264 262 260 257 255 253 253 252 249
287 289 290 293 289 286 280 276 272 267 273 283 283 268 260 262 265 266 271 270 262 271 273 273 272 271 270 269 267 265 263 260 258 256 253 252 251 251
283 285 287 287 284 281 278 277 275 276 272 278 283 278 268 264 266 266 264 265 266 269 270 271 271 271 271 270 268 265 263 260 257 256 255 254 252 251
274 275 278 277 278 278 277 273 272 271 268 270 276 277 271 261 258 264 269 259 262 264 267 267 267 268 268 269 269 268 265 263 259 256 254 252 251 251
275 274 275 278 279 281 279 271 265 266 268 268 271 273 272 266 262 260 267 267 259 251 256 258 259 256 259 266 269 269 268 264 261 258 254 252 249 248
283 281 281 284 285 285 285 286 282 277 274 272 276 275 276 271 268 265 269 272 271 233 244 254 245 247 244 240 254 260 263 264 262 259 256 253 250 246
284 285 287 286 290 282 283 284 285 284 281 278 276 275 276 271 268 270 267 266 268 252 248 261 247 251 245 250 254 255 257 260 261 260 257 253 250 247
280 281 282 282 281 284 277 273 270 271 273 274 266 266 266 263 255 259 264 266 264 253 239 260 253 248 247 240 250 253 256 258 259 260 258 254 249 247
279 282 286 285 287 291 290 284 282 277 279 278 275 275 273 274 270 262 255 261 266 255 222 242 250 248 242 237 242 249 253 255 256 256 256 255 250 244
284 281 288 292 294 296 292 286 286 284 279 278 277 277 276 274 277 269 259 264 268 264 220 222 239 233 247 234 229 234 245 250 253 254 254 254 249 241
291 289 285 295 298 298 297 290 286 289 282 277 276 271 266 259 256 251 243 247 256 256 225 214 230 223 232 245 229 221 217 225 240 252 255 253 250 235
295 292 289 298 300 301 301 295 297 301 292 287 283 280 277 274 266 254 245 241 242 250 243 225 236 230 230 229 230 221 213 210 212 223 229 250 253 244
291 295 300 303 306 304 300 302 306 302 293 289 286 282 276 274 272 267 256 250 247 242 240 236 238 237 232 231 215 196 201 212 205 209 213 217 222 230
292 293 299 301 300 298 300 303 295 287 293 287 288 286 283 279 278 270 266 264 259 252 236 231 231 231 238 229 215 201 187 195 199 201 201 209 209 205
299 293 290 293 291 291 291 292 292 296 297 289 289 293 292 287 281 273 265 257 255 256 249 230 225 226 234 227 217 208 197 198 192 185 190 207 214 208
307 298 297 297 297 298 300 300 297 296 294 293 292 290 294 294 289 281 270 263 262 255 243 228 215 217 224 233 218 210 201 199 191 185 182 194 211 207
304 292 291 293 293 294 295 295 295 294 293 291 290 290 292 293 290 285 277 271 264 255 241 221 211 209 219 230 230 210 203 195 185 189 193 194 204 203
282 283 285 287 288 289 290 291 292 292 291 289 288 286 286 289 290 286 279 270 264 257 248 228 217 213 218 220 213 214 205 196 191 194 195 194 203 210
286 282 281 282 284 285 287 288 287 288 288 289 287 285 282 282 283 282 279 279 272 256 250 240 229 218 205 188 209 216 214 209 202 192 184 186 194 197
284 282 281 280 281 281 283 284 285 285 286 285 284 285 286 283 281 280 276 271 262 256 258 252 219 202 200 211 222 217 210 208 218 220 214 201 185 194
283 281 279 279 277 277 277 279 281 283 282 281 281 280 279 280 278 273 271 267 262 256 251 245 227 215 215 212 217 217 211 205 204 213 226 231 231 230